Weather History for KMWC - December, 2013

Change the Weather History Date:

Saturday, December 21, 2013

  Actual Average Record
Temperature  
Mean Temperature 30 °F -  
Max Temperature 33 °F 30 °F 56 °F (1967)
Min Temperature 26 °F 17 °F -17 °F (1989)
Degree Days  
Heating Degree Days 36    
Moisture  
Dew Point 27 °F    
Average Humidity 91    
Maximum Humidity 100    
Minimum Humidity 80    
Precipitation  
Precipitation 0.01 in - - ()
Sea Level Pressure  
Sea Level Pressure 29.80 in    
Wind  
Wind Speed 5 mph (North)    
Max Wind Speed 15 mph    
Max Gust Speed 23 mph    
Visibility 5 miles    
Events Fog    
Averages and records for this station are not official NWS values.
T = Trace of Precipitation, MM = Missing Value Source: NWS Daily Summary

Daily Weather History Graph

Daily Weather History Graph

Search for Another Location

Airport or City:

Trip Planner

Search our weather history database for the weather conditions in past years. The results will help you decide how hot, cold, wet, or windy it might be!

Date:

Astronomy

Dec. 21, 2013 Rise Set
Actual Time 7:20 AM CST 4:20 PM CST
Civil Twilight 6:48 AM CST 4:52 PM CST
Nautical Twilight 6:12 AM CST 5:28 PM CST
Astronomical Twilight 5:37 AM CST 6:03 PM CST
Moon 8:42 PM CST (12/21) 9:41 AM CST (12/21)
Length of Visible Light 10h 04m
Length of Day
8h 59m
Waning Gibbous, 84% of the Moon is Illuminated
Dec 21
Waning Gibbous
Dec 25
Last Quarter
Jan 1
New
Jan 7
First Quarter
Jan 15
Full

Hourly Weather History & Observations

Time (CST) Temp. Windchill Dew Point Humidity Pressure Visibility Wind Dir Wind Speed Gust Speed Precip Events Conditions
12:15 AM 26.6 °F 21.2 °F 24.8 °F 93% 29.78 in 3.0 mi NNW 4.6 mph - N/A   Overcast
12:35 AM 26.6 °F 21.2 °F 24.8 °F 93% 29.78 in 2.5 mi NNW 4.6 mph - N/A   Overcast
12:55 AM 26.6 °F 21.2 °F 24.8 °F 93% 29.78 in 3.0 mi NNW 4.6 mph - N/A   Overcast
1:15 AM 26.6 °F 22.6 °F 24.8 °F 93% 29.78 in 3.0 mi NNW 3.5 mph - N/A   Overcast
1:35 AM 26.6 °F 21.2 °F 24.8 °F 93% 29.79 in 4.0 mi NW 4.6 mph - N/A   Overcast
1:55 AM 26.6 °F - 24.8 °F 93% 29.80 in 4.0 mi Calm Calm - N/A   Overcast
2:15 AM 26.6 °F - 24.8 °F 93% 29.80 in 4.0 mi Calm Calm - N/A   Overcast
2:35 AM 26.6 °F 22.6 °F 24.8 °F 93% 29.82 in 5.0 mi West 3.5 mph - N/A   Overcast
2:55 AM 26.6 °F 21.2 °F 24.8 °F 93% 29.84 in 5.0 mi West 4.6 mph - N/A   Overcast
3:15 AM 26.6 °F 22.6 °F 24.8 °F 93% 29.84 in 5.0 mi WNW 3.5 mph - N/A   Overcast
3:35 AM 26.6 °F 21.2 °F 24.8 °F 93% 29.82 in 4.0 mi NW 4.6 mph - N/A   Overcast
3:55 AM 26.6 °F 21.2 °F 24.8 °F 93% 29.81 in 4.0 mi NW 4.6 mph - N/A   Overcast
4:15 AM 26.6 °F 20.0 °F 24.8 °F 93% 29.81 in 3.0 mi NW 5.8 mph - N/A   Overcast
4:35 AM 26.6 °F 20.0 °F 24.8 °F 93% 29.81 in 3.0 mi NNW 5.8 mph - N/A   Overcast
4:55 AM 26.6 °F 21.2 °F 24.8 °F 93% 29.81 in 3.0 mi NNW 4.6 mph - N/A   Overcast
5:15 AM 26.6 °F 20.0 °F 24.8 °F 93% 29.81 in 3.0 mi NNW 5.8 mph - N/A   Overcast
5:35 AM 26.6 °F - 24.8 °F 93% 29.82 in 4.0 mi Calm Calm - N/A   Overcast
5:55 AM 26.6 °F - 24.8 °F 93% 29.86 in 4.0 mi Calm Calm - N/A   Overcast
6:15 AM 26.6 °F 22.6 °F 23.0 °F 86% 29.83 in 4.0 mi NNW 3.5 mph - N/A   Overcast
6:35 AM 26.6 °F 21.2 °F 23.0 °F 86% 29.85 in 4.0 mi NW 4.6 mph - N/A   Overcast
6:45 AM 26.6 °F - 23.0 °F 86% 29.84 in 4.0 mi Calm Calm - N/A   Overcast
7:45 AM 26.6 °F - 24.8 °F 93% 29.84 in 2.0 mi Calm Calm - N/A   Overcast
8:45 AM 26.6 °F - 24.8 °F 93% 29.83 in 1.0 mi Calm Calm - N/A   Overcast
9:50 AM 26.6 °F - 26.6 °F 100% 29.87 in 0.5 mi Calm Calm - N/A Fog Fog
10:45 AM 28.4 °F - 26.6 °F 93% 29.87 in 1.5 mi Calm Calm - N/A   Overcast
11:45 AM 30.2 °F - 26.6 °F 86% 29.84 in 2.5 mi Calm Calm - N/A   Overcast
12:45 PM 30.2 °F - 28.4 °F 93% 29.85 in 4.0 mi Calm Calm - N/A   Overcast
1:45 PM 30.2 °F - 28.4 °F 93% 29.84 in 5.0 mi Calm Calm - N/A   Overcast
2:45 PM 30.2 °F 22.6 °F 28.4 °F 93% 29.82 in 4.0 mi North 8.1 mph - N/A   Overcast
3:45 PM 30.2 °F 23.4 °F 28.4 °F 93% 29.82 in 2.0 mi North 6.9 mph - N/A   Overcast
4:45 PM 30.2 °F 22.6 °F 28.4 °F 93% 29.84 in 2.0 mi North 8.1 mph - N/A   Overcast
5:45 PM 32.0 °F 25.6 °F 30.2 °F 93% 29.82 in 5.0 mi NE 6.9 mph - N/A   Overcast
6:45 PM 33.8 °F 25.3 °F 30.2 °F 87% 29.83 in 7.0 mi NE 11.5 mph 17.3 mph N/A   Overcast
7:45 PM 32.0 °F 24.8 °F 28.4 °F 87% 29.81 in 5.0 mi NE 8.1 mph 16.1 mph N/A   Overcast
8:15 PM 32.0 °F 24.2 °F 30.2 °F 93% 29.79 in 5.0 mi NE 9.2 mph - N/A   Overcast
8:35 PM 32.0 °F 24.2 °F 30.2 °F 93% 29.79 in 3.0 mi NE 9.2 mph - N/A   Overcast
8:45 PM 32.0 °F 24.8 °F 30.2 °F 93% 29.80 in 5.0 mi NE 8.1 mph - N/A   Overcast
8:55 PM 32.0 °F 25.6 °F 30.2 °F 93% 29.80 in 10.0 mi NE 6.9 mph 16.1 mph 0.01 in   Overcast
9:15 PM 32.0 °F 23.6 °F 28.4 °F 87% 29.78 in 10.0 mi NE 10.4 mph 17.3 mph N/A   Overcast
9:35 PM 32.0 °F 22.5 °F 28.4 °F 87% 29.76 in 10.0 mi NE 12.7 mph 18.4 mph N/A   Overcast
9:55 PM 32.0 °F 22.5 °F 28.4 °F 87% 29.74 in 10.0 mi NE 12.7 mph 19.6 mph N/A   Overcast
10:15 PM 32.0 °F 23.6 °F 28.4 °F 87% 29.73 in 10.0 mi NE 10.4 mph 23.0 mph N/A   Overcast
10:35 PM 32.0 °F 21.6 °F 28.4 °F 87% 29.68 in 10.0 mi NE 15.0 mph 20.7 mph N/A   Overcast
10:55 PM 32.0 °F 22.1 °F 28.4 °F 87% 29.68 in 10.0 mi NE 13.8 mph 19.6 mph N/A   Overcast
11:15 PM 32.0 °F 22.5 °F 28.4 °F 87% 29.69 in 10.0 mi NE 12.7 mph 18.4 mph N/A   Overcast
11:35 PM 32.0 °F 23.0 °F 26.6 °F 80% 29.72 in 10.0 mi NE 11.5 mph 17.3 mph N/A   Overcast
11:55 PM 32.0 °F 24.8 °F 26.6 °F 80% 29.72 in 10.0 mi NE 8.1 mph - N/A   Overcast